Location: Mannheim
(49.4880°N, 8.4650°E)
Time: 00:20:29
(UTC+02:00)

ISS - Pass Details

Date: 17 September 2018
Orbit: 403 x 408 km, 51.6° (Epoch: 23 September)

Event Time Altitude Azimuth Distance (km) Brightness Sun altitude
Exits shadow 04:54:45 17° 143° (SE) 1,101 -1.6 -20.8°
Drops below altitude 10° 04:55:42 10° 137° (SE) 1,457 -0.9 -20.7°
Sets 04:57:49 0° 130° (SE) 2,313 0.3 -20.4°
